SCP
-0 -0 -0 -0 -0 -0 -0 -0 -0 -0 -0 -0 -0 -0 -0 -0 -0 -0 -0 -0 -0 -0 -0 -0 -0 -0 -0 0 0 0 0 0 0 0 0 -0 -0 -0 -0 -0 0 -0 -0
-0 -0 -0 -0 -0 -0 -0 -0 -0 -0 -0 -0 -0 -0 -0 -0 0 -0 -0 -0 -0 -0 -0 0 0 0 0 0 0 0 0 0 0 0 -0 -0 -0 -0 -0 -0 -0 -0 -0
-0 -0 -0 -0 -0 -0 -0 -0 -0 -0 -0 -0 -0 -0 -0 -0 -0 0 0 0 -0 -0 -0 0 0 0 0 0 0 0 0 0 0 -0 0 0 -0 -0 -0 -0 -0 0 -0
-0 -0 -0 -0 -0 -0 -0 -0 -0 -0 -0 -0 -0 -0 -0 0 0 0 0 0 0 0 0 0 0 0 0 0 0 -0 -0 -0 0 0 0 0 0 0 0 -0 0 0 0
-0 -0 -0 -0 -0 -0 -0 -0 -0 -0 -0 -0 -0 -0 0 0 0 0 0 0 0 0 0 0 0 0 0 0 -0 -0 -0 -0 0 0 0 0 0 0 0 0 -0 -0 -0
-0 -0 -0 -0 -0 -0 -0 -0 -0 -0 -0 0 0 0 0 0 0 0 0 0 0 0 0 0 0 0 0 0 0 0 -0 0 0 0 0 0 0 0 0 -0 -0 -0 -0
-0 -0 -0 -0 -0 -0 -0 -0 -0 0 0 0 0 0 0 0 0 0 0 0 0 0 0 0 0 0 0 0 0 0 0 0 0 0 0 0 0 -0 0 0 -0 -0 -0
-0 -0 -0 0 0 -0 -0 0 0 0 0 0 0 0 0 0 0 0 0 0 0 0 0 0 0 0 0 0 0 0 0 0 0 0 0 0 0 0 -0 0 0 -0 -0
0 0 0 0 0 -0 -0 0 -0 -0 0 0 0 0 0 0 0 0 0 0 0 0 0 0 0 0 0 0 0 0 0 0 0 0 0 0 0 -0 -0 -0 -0 -0 -0
-0 0 0 0 -0 -0 -0 -0 -0 -0 -0 -0 0 0 0 0 0 0 0 0 0 0 0 0 0 0 0 0 0 0 0 0 0 0 0 0 -0 -0 -0 -0 -0 -0 -0
-0 -0 -0 -0 -0 0 0 -0 -0 -0 -0 -0 0 0 0 0 0 0 0 0 0 0 0 0 0 0 0 0 0 0 0 0 0 0 0 -0 -0 -0 -0 -0 -0 -0 -0
0 -0 -0 -0 -0 -0 -0 -0 -0 -0 -0 0 0 0 0 0 0 0 0 0 0 0 0 0 0 0 0 0 0 -0 0 0 0 0 0 -0 -0 -0 -0 -0 -0 -0 -0
-0 -0 -0 -0 -0 -0 -0 -0 0 -0 0 0 0 0 0 0 0 0 0 0 0 0 0 0 0 0 0 0 0 0 0 0 0 0 0 -0 -0 -0 -0 -0 -0 -0 -0
-0 -0 -0 -0 -0 -0 -0 -0 -0 -0 0 0 0 0 0 0 0 0 0 0 0 0 0 0 0 0 0 0 0 0 0 0 0 0 0 0 0 0 -0 -0 -0 -0 -0
-0 -0 -0 -0 0 -0 -0 -0 -0 0 0 0 0 0 0 0 0 0 0 0 0 0 0 0 0 0 -0 -0 -0 0 0 0 0 0 0 0 0 0 0 -0 0 0 0
-0 -0 -0 -0 0 -0 0 0 0 0 0 0 0 0 0 0 0 0 0 0 0 0 0 0 0 0 0 -0 0 -0 -0 -0 0 0 0 0 0 0 0 0 0 0 0
-0 -0 -0 -0 -0 0 0 0 0 0 0 0 0 0 0 0 0 0 0 0 0 0 0 0 0 0 0 0 0 0 -0 -0 -0 -0 -0 -0 -0 -0 0 0 0 0 0
-0 -0 -0 0 0 0 0 0 0 0 0 0 0 0 0 0 0 0 0 0 0 0 0 0 0 0 0 0 0 0 -0 -0 -0 -0 -0 -0 -0 -0 -0 -0 0 0 0
-0 0 0 0 0 0 1 0 0 0 0 0 0 0 0 0 0 0 0 0 0 0 0 0 0 0 0 0 0 0 0 -0 -0 -0 -0 -0 -0 -0 -0 0 -0 -0 -0
-0 -0 0 0 0 0 1 0 0 0 0 0 0 0 0 0 0 0 0 0 0 0 0 0 0 0 0 0 -0 0 0 0 0 0 0 0 0 0 0 -0 0 0 0
-0 -0 0 0 0 0 0 0 0 0 0 0 0 0 0 0 0 0 0 0 0 0 0 0 0 0 0 0 0 0 0 0 0 0 0 0 0 0 0 0 0 0 0
-0 -0 -0 -0 -0 0 0 0 0 -0 -0 0 0 0 0 0 0 0 0 0 0 0 0 0 0 0 0 0 0 0 0 0 0 0 0 0 0 0 0 0 0 0 0
-0 -0 -0 -0 -0 -0 -0 -0 0 0 0 0 0 0 0 0 0 0 0 0 0 -0 -0 0 0 0 0 0 0 0 0 0 0 0 0 0 0 0 0 0 0 0 0
0 0 0 0 0 0 0 0 0 0 0 0 0 0 0 0 0 0 0 0 0 -0 -0 0 0 0 0 0 0 0 0 0 0 0 0 0 0 0 0 0 0 0 0
0 0 0 0 0 0 0 0 0 0 0 0 0 0 0 0 0 0 0 0 0 0 0 0 0 0 0 0 0 0 0 0 0 0 0 0 0 0 0 0 0 0 0
0 0 0 0 0 0 0 0 0 0 0 0 0 0 0 0 0 0 0 0 0 0 0 0 0 0 0 0 0 0 0 0 0 0 0 0 0 0 0 0 0 0 0
Wind_Speed_500mb
33 28 26 24 24 22 21 20 20 22 24 22 21 20 19 17 16 13 10 7 4 4 5 7 6 4 5 5 7 8 10 13 15 16 16 15 14 14 14 14 19 20 23
39 32 27 25 25 22 21 23 24 24 23 21 21 22 19 17 15 13 9 7 4 5 7 8 8 6 6 6 6 8 10 13 16 16 15 12 11 10 10 10 12 16 19
39 33 29 27 25 22 22 25 26 24 22 22 22 21 18 16 14 12 11 10 8 7 6 5 5 4 3 5 5 8 10 13 18 18 14 12 10 9 9 8 9 13 16
35 30 28 27 24 22 23 27 24 22 23 23 21 19 17 16 16 16 14 13 11 10 11 8 4 4 6 6 7 10 13 16 18 16 11 12 9 6 7 7 8 12 15
34 30 29 27 25 25 26 25 22 22 23 21 19 18 17 16 16 16 15 16 15 15 14 13 13 13 16 15 19 20 19 19 18 18 14 11 10 4 0 8 8 9 10
33 30 29 28 26 26 27 25 23 24 22 20 18 18 16 16 17 18 19 19 19 18 20 21 18 23 19 21 26 25 23 22 20 14 7 6 10 7 10 4 3 6 9
31 29 28 26 25 24 25 21 20 22 20 19 18 18 18 19 21 21 20 19 21 23 25 24 21 24 23 22 20 18 17 16 17 13 9 8 6 4 2 3 6 8 9
31 29 26 24 22 22 23 20 21 21 19 18 20 21 22 23 22 20 19 20 21 22 24 24 24 27 24 21 18 16 12 10 9 9 11 10 8 1 8 12 13 15 17
28 26 24 25 22 21 20 19 20 19 18 19 20 22 23 24 22 19 17 19 21 20 22 23 19 23 21 19 15 12 10 9 9 7 8 9 11 13 14 14 15 19 22
30 27 25 24 23 22 20 19 20 19 18 17 18 21 21 21 19 16 14 17 18 18 16 17 15 18 15 15 14 13 14 9 10 12 14 17 14 16 12 11 8 3 8
32 27 24 23 23 25 22 21 20 17 16 14 14 14 14 14 14 14 12 14 14 15 14 11 13 13 12 13 13 18 16 18 16 19 23 21 23 23 23 18 16 9 1
35 32 26 24 23 26 23 21 20 16 15 13 12 10 8 8 7 9 8 9 11 14 12 12 13 13 11 15 20 22 17 19 22 22 24 19 17 14 12 12 10 4 9
32 31 29 26 23 25 21 19 19 16 15 12 9 7 5 5 4 5 4 6 6 11 13 15 16 14 13 14 18 19 15 13 14 18 13 12 13 14 17 11 4 3 4
28 27 26 26 25 26 24 20 16 13 12 9 8 5 3 1 5 6 5 3 2 4 9 16 14 15 14 12 16 17 15 14 12 11 8 8 9 7 14 10 8 9 11
30 27 24 23 25 27 25 20 16 14 14 10 10 4 1 3 7 8 9 2 6 5 5 12 13 15 17 16 18 18 17 15 15 14 12 11 13 18 23 23 20 19 18
29 26 24 23 25 28 26 22 18 15 15 12 8 5 3 8 10 13 12 2 7 11 7 11 6 9 14 16 19 19 20 17 15 15 14 16 22 24 26 27 28 28 29
31 28 27 25 27 28 25 23 21 19 18 13 11 11 9 12 13 16 11 7 7 10 14 18 9 11 11 12 12 13 16 15 15 18 18 17 21 25 25 27 28 27 25
26 30 29 30 30 29 26 24 25 25 22 18 18 17 17 17 15 16 12 10 10 12 15 20 12 19 17 12 9 6 7 10 11 14 16 17 16 14 20 21 21 22 21
21 27 34 36 32 30 28 27 24 31 27 25 24 23 21 19 18 16 14 12 10 14 16 15 13 21 22 17 15 12 10 9 9 9 10 8 8 10 10 9 10 12 14
18 23 33 40 37 30 27 22 28 33 29 30 27 26 25 22 20 19 17 14 13 16 19 15 16 23 21 22 23 23 21 19 18 16 13 13 9 7 6 6 7 6 1
17 15 26 40 41 29 24 24 23 22 31 22 27 27 29 29 24 19 19 17 14 14 15 20 23 23 24 21 25 27 31 32 30 29 27 23 21 19 16 14 13 14 13
14 13 20 30 29 29 21 17 20 14 16 26 29 32 33 30 24 20 19 18 15 17 21 18 25 25 27 26 21 20 20 24 39 40 38 36 31 29 27 25 24 23 22
9 9 13 19 26 23 16 18 13 13 10 21 21 23 25 25 25 23 21 22 21 18 17 19 24 27 22 32 34 22 11 18 11 22 41 44 41 39 37 36 32 32 33
12 12 14 19 23 26 22 20 16 13 17 19 22 27 25 26 24 25 24 25 26 20 17 19 23 29 29 24 35 40 40 27 15 11 15 28 37 42 42 43 43 41 43
12 15 19 23 27 25 22 22 21 19 20 22 27 28 22 22 27 27 28 27 33 30 29 27 27 26 27 25 25 32 36 39 36 24 20 14 22 25 32 40 41 42 42
13 21 25 28 30 29 29 25 23 22 21 22 24 23 23 27 29 28 30 28 38 36 36 33 29 26 27 27 28 33 33 26 27 27 26 23 19 17 24 30 31 29 31
Wind_Direction_500mb
157 160 148 150 144 143 139 132 126 121 119 117 116 109 102 97 87 80 73 63 30 317 289 283 273 246 209 202 179 177 170 156 146 136 123 111 96 87 74 71 72 72 69
156 157 151 145 142 141 140 133 130 127 124 121 116 109 99 87 79 72 65 51 11 320 299 287 285 256 218 220 185 170 161 161 157 140 129 108 90 75 64 74 77 75 74
159 155 146 141 141 145 138 134 133 131 127 121 110 100 93 87 82 72 56 42 19 354 326 336 290 256 202 201 174 157 154 150 151 144 130 111 98 55 48 72 94 93 84
158 151 145 142 145 142 137 138 133 129 125 119 107 98 87 74 62 50 42 32 19 358 5 22 18 68 123 140 130 126 141 144 146 149 121 106 91 43 72 82 96 94 91
156 155 148 146 145 142 141 137 132 128 121 112 103 92 82 72 63 56 48 37 27 17 22 40 59 78 81 106 107 112 116 126 131 119 109 101 83 36 165 123 108 99 102
157 154 147 146 146 145 143 139 133 128 124 113 101 93 86 77 69 66 57 49 43 36 37 48 58 84 95 109 114 109 104 102 103 100 95 63 83 87 113 94 132 129 119
157 150 147 146 145 145 144 136 130 124 115 109 103 96 86 78 79 72 63 52 48 47 48 56 70 92 103 106 108 105 106 96 84 63 59 73 56 352 357 77 117 140 137
158 151 149 147 150 148 145 138 133 124 120 118 103 92 87 87 85 75 63 53 47 51 57 65 80 95 96 99 102 96 90 70 41 39 58 56 7 79 111 105 110 125 121
159 154 153 154 154 154 149 137 133 133 127 115 98 95 90 91 90 80 67 55 44 42 50 70 94 104 107 105 91 83 32 9 47 343 44 70 97 107 116 110 111 103 106
163 161 162 161 159 158 151 144 148 141 130 125 113 96 89 91 91 81 63 50 38 35 55 64 96 102 90 81 65 25 1 356 62 77 90 112 109 114 111 114 117 131 127
167 166 165 168 166 165 161 160 156 145 144 132 118 101 95 91 91 85 52 44 46 40 71 81 90 103 100 79 44 32 54 77 88 103 104 108 108 101 84 65 37 39 233
168 172 172 171 171 170 167 166 162 158 153 144 133 117 98 85 78 83 53 27 44 49 54 89 99 107 89 62 46 58 74 89 95 87 97 98 108 85 54 338 346 10 101
159 171 173 169 170 172 173 174 172 170 164 153 135 136 111 91 37 54 33 359 23 53 59 99 107 95 60 60 55 52 84 90 80 83 97 63 13 345 316 318 348 32 73
171 173 174 172 172 173 180 182 182 185 177 176 170 133 118 47 14 5 353 8 202 69 73 109 92 73 62 69 66 74 89 94 96 99 73 8 326 37 75 88 80 85 84
188 187 182 180 179 183 183 187 192 199 194 196 179 177 154 355 348 338 341 307 185 197 127 110 99 81 76 80 74 72 85 91 91 99 96 80 75 80 82 81 84 86 87
206 200 196 192 190 188 192 193 200 205 209 210 205 239 317 335 335 335 332 309 191 210 190 164 120 115 102 97 88 83 90 98 93 99 108 90 86 91 90 86 86 86 88
217 212 209 206 198 197 197 205 210 215 224 232 252 268 297 307 323 321 300 299 250 215 213 210 329 177 162 127 111 99 96 104 93 101 103 116 97 92 92 91 84 85 87
230 224 220 215 210 204 209 217 225 225 233 246 259 269 288 304 311 313 309 300 272 235 229 235 295 206 194 188 169 139 129 125 122 116 108 106 110 123 99 94 87 82 80
229 227 228 224 220 214 223 233 249 238 238 248 261 264 277 292 308 311 310 306 274 242 254 256 259 210 211 223 223 215 212 197 180 160 157 134 109 102 120 99 94 87 76
240 238 227 226 220 216 231 239 259 288 279 261 261 264 278 282 294 304 300 295 269 255 252 261 228 219 221 236 230 234 237 236 229 219 207 207 212 200 193 184 213 231 54
246 255 219 213 220 222 235 243 275 292 281 271 258 269 280 284 286 292 290 280 261 246 240 266 236 223 226 222 221 238 245 244 242 239 234 230 230 231 236 242 247 234 243
229 234 218 212 215 228 243 267 298 321 289 265 267 272 274 273 283 287 283 266 253 253 280 244 223 223 233 230 221 231 248 252 249 248 247 245 243 242 244 247 250 256 253
242 229 228 216 210 232 237 254 295 304 292 267 287 298 291 286 284 288 285 255 252 251 259 243 237 235 235 243 238 231 235 243 234 245 246 246 245 248 246 248 254 258 259
264 245 235 218 224 225 229 247 274 279 299 299 299 300 293 283 279 287 291 251 241 240 242 248 253 246 243 245 247 242 241 243 261 269 260 246 249 255 250 247 253 257 260
255 237 225 221 223 228 238 255 259 258 278 292 303 303 294 292 288 286 289 255 234 236 238 253 268 254 248 247 244 245 243 247 253 249 262 252 254 253 242 245 252 261 261
229 214 215 219 225 234 240 253 260 262 271 285 298 302 293 299 292 283 288 262 242 242 242 253 262 257 256 257 250 241 239 242 245 242 246 249 243 252 247 251 259 265 270
Wind_Speed_850mb
33 28 26 24 24 22 21 20 20 22 24 22 21 20 19 17 16 13 10 7 4 4 5 7 6 4 5 5 7 8 10 13 15 16 16 15 14 14 14 14 19 20 23
39 32 27 25 25 22 21 23 24 24 23 21 21 22 19 17 15 13 9 7 4 5 7 8 8 6 6 6 6 8 10 13 16 16 15 12 11 10 10 10 12 16 19
39 33 29 27 25 22 22 25 26 24 22 22 22 21 18 16 14 12 11 10 8 7 6 5 5 4 3 5 5 8 10 13 18 18 14 12 10 9 9 8 9 13 16
35 30 28 27 24 22 23 27 24 22 23 23 21 19 17 16 16 16 14 13 11 10 11 8 4 4 6 6 7 10 13 16 18 16 11 12 9 6 7 7 8 12 15
34 30 29 27 25 25 26 25 22 22 23 21 19 18 17 16 16 16 15 16 15 15 14 13 13 13 16 15 19 20 19 19 18 18 14 11 10 4 0 8 8 9 10
33 30 29 28 26 26 27 25 23 24 22 20 18 18 16 16 17 18 19 19 19 18 20 21 18 23 19 21 26 25 23 22 20 14 7 6 10 7 10 4 3 6 9
31 29 28 26 25 24 25 21 20 22 20 19 18 18 18 19 21 21 20 19 21 23 25 24 21 24 23 22 20 18 17 16 17 13 9 8 6 4 2 3 6 8 9
31 29 26 24 22 22 23 20 21 21 19 18 20 21 22 23 22 20 19 20 21 22 24 24 24 27 24 21 18 16 12 10 9 9 11 10 8 1 8 12 13 15 17
28 26 24 25 22 21 20 19 20 19 18 19 20 22 23 24 22 19 17 19 21 20 22 23 19 23 21 19 15 12 10 9 9 7 8 9 11 13 14 14 15 19 22
30 27 25 24 23 22 20 19 20 19 18 17 18 21 21 21 19 16 14 17 18 18 16 17 15 18 15 15 14 13 14 9 10 12 14 17 14 16 12 11 8 3 8
32 27 24 23 23 25 22 21 20 17 16 14 14 14 14 14 14 14 12 14 14 15 14 11 13 13 12 13 13 18 16 18 16 19 23 21 23 23 23 18 16 9 1
35 32 26 24 23 26 23 21 20 16 15 13 12 10 8 8 7 9 8 9 11 14 12 12 13 13 11 15 20 22 17 19 22 22 24 19 17 14 12 12 10 4 9
32 31 29 26 23 25 21 19 19 16 15 12 9 7 5 5 4 5 4 6 6 11 13 15 16 14 13 14 18 19 15 13 14 18 13 12 13 14 17 11 4 3 4
28 27 26 26 25 26 24 20 16 13 12 9 8 5 3 1 5 6 5 3 2 4 9 16 14 15 14 12 16 17 15 14 12 11 8 8 9 7 14 10 8 9 11
30 27 24 23 25 27 25 20 16 14 14 10 10 4 1 3 7 8 9 2 6 5 5 12 13 15 17 16 18 18 17 15 15 14 12 11 13 18 23 23 20 19 18
29 26 24 23 25 28 26 22 18 15 15 12 8 5 3 8 10 13 12 2 7 11 7 11 6 9 14 16 19 19 20 17 15 15 14 16 22 24 26 27 28 28 29
31 28 27 25 27 28 25 23 21 19 18 13 11 11 9 12 13 16 11 7 7 10 14 18 9 11 11 12 12 13 16 15 15 18 18 17 21 25 25 27 28 27 25
26 30 29 30 30 29 26 24 25 25 22 18 18 17 17 17 15 16 12 10 10 12 15 20 12 19 17 12 9 6 7 10 11 14 16 17 16 14 20 21 21 22 21
21 27 34 36 32 30 28 27 24 31 27 25 24 23 21 19 18 16 14 12 10 14 16 15 13 21 22 17 15 12 10 9 9 9 10 8 8 10 10 9 10 12 14
18 23 33 40 37 30 27 22 28 33 29 30 27 26 25 22 20 19 17 14 13 16 19 15 16 23 21 22 23 23 21 19 18 16 13 13 9 7 6 6 7 6 1
17 15 26 40 41 29 24 24 23 22 31 22 27 27 29 29 24 19 19 17 14 14 15 20 23 23 24 21 25 27 31 32 30 29 27 23 21 19 16 14 13 14 13
14 13 20 30 29 29 21 17 20 14 16 26 29 32 33 30 24 20 19 18 15 17 21 18 25 25 27 26 21 20 20 24 39 40 38 36 31 29 27 25 24 23 22
9 9 13 19 26 23 16 18 13 13 10 21 21 23 25 25 25 23 21 22 21 18 17 19 24 27 22 32 34 22 11 18 11 22 41 44 41 39 37 36 32 32 33
12 12 14 19 23 26 22 20 16 13 17 19 22 27 25 26 24 25 24 25 26 20 17 19 23 29 29 24 35 40 40 27 15 11 15 28 37 42 42 43 43 41 43
12 15 19 23 27 25 22 22 21 19 20 22 27 28 22 22 27 27 28 27 33 30 29 27 27 26 27 25 25 32 36 39 36 24 20 14 22 25 32 40 41 42 42
13 21 25 28 30 29 29 25 23 22 21 22 24 23 23 27 29 28 30 28 38 36 36 33 29 26 27 27 28 33 33 26 27 27 26 23 19 17 24 30 31 29 31
Wind_Direction_850mb
157 160 148 150 144 143 139 132 126 121 119 117 116 109 102 97 87 80 73 63 30 317 289 283 273 246 209 202 179 177 170 156 146 136 123 111 96 87 74 71 72 72 69
156 157 151 145 142 141 140 133 130 127 124 121 116 109 99 87 79 72 65 51 11 320 299 287 285 256 218 220 185 170 161 161 157 140 129 108 90 75 64 74 77 75 74
159 155 146 141 141 145 138 134 133 131 127 121 110 100 93 87 82 72 56 42 19 354 326 336 290 256 202 201 174 157 154 150 151 144 130 111 98 55 48 72 94 93 84
158 151 145 142 145 142 137 138 133 129 125 119 107 98 87 74 62 50 42 32 19 358 5 22 18 68 123 140 130 126 141 144 146 149 121 106 91 43 72 82 96 94 91
156 155 148 146 145 142 141 137 132 128 121 112 103 92 82 72 63 56 48 37 27 17 22 40 59 78 81 106 107 112 116 126 131 119 109 101 83 36 165 123 108 99 102
157 154 147 146 146 145 143 139 133 128 124 113 101 93 86 77 69 66 57 49 43 36 37 48 58 84 95 109 114 109 104 102 103 100 95 63 83 87 113 94 132 129 119
157 150 147 146 145 145 144 136 130 124 115 109 103 96 86 78 79 72 63 52 48 47 48 56 70 92 103 106 108 105 106 96 84 63 59 73 56 352 357 77 117 140 137
158 151 149 147 150 148 145 138 133 124 120 118 103 92 87 87 85 75 63 53 47 51 57 65 80 95 96 99 102 96 90 70 41 39 58 56 7 79 111 105 110 125 121
159 154 153 154 154 154 149 137 133 133 127 115 98 95 90 91 90 80 67 55 44 42 50 70 94 104 107 105 91 83 32 9 47 343 44 70 97 107 116 110 111 103 106
163 161 162 161 159 158 151 144 148 141 130 125 113 96 89 91 91 81 63 50 38 35 55 64 96 102 90 81 65 25 1 356 62 77 90 112 109 114 111 114 117 131 127
167 166 165 168 166 165 161 160 156 145 144 132 118 101 95 91 91 85 52 44 46 40 71 81 90 103 100 79 44 32 54 77 88 103 104 108 108 101 84 65 37 39 233
168 172 172 171 171 170 167 166 162 158 153 144 133 117 98 85 78 83 53 27 44 49 54 89 99 107 89 62 46 58 74 89 95 87 97 98 108 85 54 338 346 10 101
159 171 173 169 170 172 173 174 172 170 164 153 135 136 111 91 37 54 33 359 23 53 59 99 107 95 60 60 55 52 84 90 80 83 97 63 13 345 316 318 348 32 73
171 173 174 172 172 173 180 182 182 185 177 176 170 133 118 47 14 5 353 8 202 69 73 109 92 73 62 69 66 74 89 94 96 99 73 8 326 37 75 88 80 85 84
188 187 182 180 179 183 183 187 192 199 194 196 179 177 154 355 348 338 341 307 185 197 127 110 99 81 76 80 74 72 85 91 91 99 96 80 75 80 82 81 84 86 87
206 200 196 192 190 188 192 193 200 205 209 210 205 239 317 335 335 335 332 309 191 210 190 164 120 115 102 97 88 83 90 98 93 99 108 90 86 91 90 86 86 86 88
217 212 209 206 198 197 197 205 210 215 224 232 252 268 297 307 323 321 300 299 250 215 213 210 329 177 162 127 111 99 96 104 93 101 103 116 97 92 92 91 84 85 87
230 224 220 215 210 204 209 217 225 225 233 246 259 269 288 304 311 313 309 300 272 235 229 235 295 206 194 188 169 139 129 125 122 116 108 106 110 123 99 94 87 82 80
229 227 228 224 220 214 223 233 249 238 238 248 261 264 277 292 308 311 310 306 274 242 254 256 259 210 211 223 223 215 212 197 180 160 157 134 109 102 120 99 94 87 76
240 238 227 226 220 216 231 239 259 288 279 261 261 264 278 282 294 304 300 295 269 255 252 261 228 219 221 236 230 234 237 236 229 219 207 207 212 200 193 184 213 231 54
246 255 219 213 220 222 235 243 275 292 281 271 258 269 280 284 286 292 290 280 261 246 240 266 236 223 226 222 221 238 245 244 242 239 234 230 230 231 236 242 247 234 243
229 234 218 212 215 228 243 267 298 321 289 265 267 272 274 273 283 287 283 266 253 253 280 244 223 223 233 230 221 231 248 252 249 248 247 245 243 242 244 247 250 256 253
242 229 228 216 210 232 237 254 295 304 292 267 287 298 291 286 284 288 285 255 252 251 259 243 237 235 235 243 238 231 235 243 234 245 246 246 245 248 246 248 254 258 259
264 245 235 218 224 225 229 247 274 279 299 299 299 300 293 283 279 287 291 251 241 240 242 248 253 246 243 245 247 242 241 243 261 269 260 246 249 255 250 247 253 257 260
255 237 225 221 223 228 238 255 259 258 278 292 303 303 294 292 288 286 289 255 234 236 238 253 268 254 248 247 244 245 243 247 253 249 262 252 254 253 242 245 252 261 261
229 214 215 219 225 234 240 253 260 262 271 285 298 302 293 299 292 283 288 262 242 242 242 253 262 257 256 257 250 241 239 242 245 242 246 249 243 252 247 251 259 265 270